Burlington, CO

6:02 PM MDT on May 29, 2017 (GMT -0600)
Kit Carson County

Weather History for KITR - August, 2013

Change the Weather History Date:

Tuesday, August 27, 2013

  Actual Average Record
Temperature  
Mean Temperature 78 °F 70 °F  
Max Temperature 96 °F 84 °F 100 °F (1926)
Min Temperature 59 °F 56 °F 40 °F (1992)
Cooling Degree Days 12    
Growing Degree Days 28 (Base 50)    
Moisture  
Dew Point 52 °F    
Average Humidity 42    
Maximum Humidity 81    
Minimum Humidity 20    
Precipitation  
Precipitation 0.00 in 0.08 in 2.57 in (1957)
Month to date precipitation 1.86 2.11  
Year to date precipitation 10.39 13.85  
Sea Level Pressure  
Sea Level Pressure 29.89 in    
Wind  
Wind Speed 11 mph (South)    
Max Wind Speed 14 mph    
Max Gust Speed 22 mph    
Visibility 10 miles    
Events      
T = Trace of Precipitation, MM = Missing Value Source: NWS Daily Summary

Daily Weather History Graph

Daily Weather History Graph

Search for Another Location

Airport or City:

Trip Planner

Search our weather history database for the weather conditions in past years. The results will help you decide how hot, cold, wet, or windy it might be!

Date:

Astronomy

Aug. 27, 2013 Rise Set
Actual Time 6:13 AM MDT 7:27 PM MDT
Civil Twilight 5:45 AM MDT 7:54 PM MDT
Nautical Twilight 5:12 AM MDT 8:27 PM MDT
Astronomical Twilight 4:37 AM MDT 9:02 PM MDT
Moon 11:24 PM MDT (8/27) 1:10 PM MDT (8/27)
Length of Visible Light 14h 08m
Length of Day
13h 13m
Waning Gibbous, 56% of the Moon is Illuminated
Aug 27
Waning Gibbous
Aug 28
Last Quarter
Sep 5
New
Sep 12
First Quarter
Sep 19
Full

Hourly Weather History & Observations

Time (MDT) Temp. Heat Index Dew Point Humidity Pressure Visibility Wind Dir Wind Speed Gust Speed Precip Events Conditions
12:53 AM 73.9 °F - 54.0 °F 50% 29.89 in 10.0 mi South 13.8 mph - N/A   Clear
1:53 AM 72.0 °F - 54.0 °F 53% 29.88 in 10.0 mi South 12.7 mph - N/A   Clear
2:53 AM 70.0 °F - 54.0 °F 57% 29.89 in 10.0 mi South 13.8 mph - N/A   Clear
3:53 AM 69.1 °F - 54.0 °F 58% 29.89 in 10.0 mi SSW 10.4 mph - N/A   Clear
4:53 AM 64.0 °F - 54.0 °F 70% 29.90 in 10.0 mi West 8.1 mph - N/A   Clear
5:53 AM 59.0 °F - 53.1 °F 81% 29.93 in 10.0 mi WSW 6.9 mph - N/A   Clear
6:53 AM 62.1 °F - 54.0 °F 75% 29.93 in 10.0 mi WSW 6.9 mph - N/A   Clear
7:53 AM 73.0 °F - 55.0 °F 53% 29.93 in 10.0 mi WSW 6.9 mph - N/A   Clear
8:53 AM 79.0 °F - 55.9 °F 45% 29.92 in 10.0 mi West 4.6 mph - N/A   Clear
9:53 AM 82.9 °F 82.4 °F 57.0 °F 41% 29.93 in 10.0 mi SW 6.9 mph - N/A   Clear
10:53 AM 88.0 °F 86.1 °F 55.0 °F 32% 29.92 in 10.0 mi South 5.8 mph - N/A   Clear
11:53 AM 91.9 °F - 52.0 °F 26% 29.91 in 10.0 mi South 13.8 mph 21.9 mph N/A   Clear
12:53 PM 93.0 °F - 51.1 °F 24% 29.88 in 10.0 mi South 13.8 mph 20.7 mph N/A   Clear
1:53 PM 95.0 °F - 51.1 °F 22% 29.87 in 10.0 mi South 10.4 mph 16.1 mph N/A   Clear
2:53 PM 96.1 °F - 50.0 °F 21% 29.86 in 10.0 mi SSW 6.9 mph - N/A   Clear
3:53 PM 93.9 °F - 48.9 °F 21% 29.86 in 10.0 mi SE 11.5 mph 16.1 mph N/A   Clear
4:53 PM 93.9 °F - 48.0 °F 21% 29.86 in 10.0 mi SSE 10.4 mph 17.3 mph N/A   Clear
5:53 PM 93.0 °F - 46.0 °F 20% 29.87 in 10.0 mi SSE 11.5 mph - N/A   Clear
6:53 PM 87.1 °F - 48.0 °F 26% 29.87 in 10.0 mi SSE 8.1 mph - N/A   Clear
7:53 PM 80.1 °F - 48.0 °F 32% 29.87 in 10.0 mi SE 10.4 mph - N/A   Clear
8:53 PM 78.1 °F - 53.1 °F 42% 29.88 in 10.0 mi South 11.5 mph - N/A   Clear
9:53 PM 75.9 °F - 54.0 °F 46% 29.89 in 10.0 mi South 12.7 mph - N/A   Clear
10:53 PM 72.0 °F - 53.1 °F 51% 29.89 in 10.0 mi South 10.4 mph - N/A   Clear
11:53 PM 71.1 °F - 53.1 °F 53% 29.88 in 10.0 mi South 11.5 mph - N/A   Clear